Weather reports worldwide

Advertisment
Topcliffe, United Kingdom (3265): temperature & dewpoint: 17.01.2019 23:00:00 - 23.01.2019 23:00:00 (GMT)Topcliffe, United Kingdom (3265): wind speed & gusts: 17.01.2019 23:00:00 - 23.01.2019 23:00:00 (GMT)Topcliffe, United Kingdom (3265): wind direction: 17.01.2019 23:00:00 - 23.01.2019 23:00:00 (GMT)Topcliffe, United Kingdom (3265): reduced air pressure: 17.01.2019 23:00:00 - 23.01.2019 23:00:00 (GMT)Topcliffe, United Kingdom (3265): visibility: 17.01.2019 23:00:00 - 23.01.2019 23:00:00 (GMT)Topcliffe, United Kingdom (3265): precipitation: 17.01.2019 23:00:00 - 23.01.2019 23:00:00 (GMT)
Date & Time tt [°C] td [°C] ff [km/h] ff [kn] fx [km/h] fx [kn] dd ppp [hPa] vv [km] rr [mm]
23.01.2019 23:00:00 -3,8 -4,2 8 4 - - SE 1007,4 13 0,0
23.01.2019 22:00:00 -4,7 -5,1 4 2 - - E 1007,1 12 0,0
23.01.2019 21:00:00 -4,5 -4,9 2 1 - - E 1007,0 7 0,0
23.01.2019 20:00:00 -5,3 -5,9 4 2 - - SW 1006,8 9 0,0
23.01.2019 19:00:00 -3,4 -3,9 5 3 - - ENE 1006,2 9 0,0
23.01.2019 18:00:00 -3,1 -3,9 4 2 - - SE 1006,1 15 0,0
23.01.2019 17:00:00 -1,3 -3,1 2 1 - - SSW 1006,0 50 0,0
23.01.2019 16:00:00 3,1 -1,6 2 1 - - SW 1005,3 50 0,0
23.01.2019 15:00:00 3,7 -1,2 4 2 - - NNW 1004,6 35 0,0
23.01.2019 14:00:00 3,0 -1,5 5 3 - - NNW 1004,2 50 0,0
23.01.2019 13:00:00 2,2 -1,0 8 4 - - NNW 1003,9 40 0,0
23.01.2019 12:00:00 0,9 -1,8 11 6 - - NNW 1003,8 10 0,0
23.01.2019 11:00:00 -0,2 -2,3 9 5 - - NNW 1003,6 50 0,0
23.01.2019 10:00:00 -1,5 -3,1 0 0 - - N 1003,1 45 0,0
23.01.2019 09:00:00 -3,6 -4,5 0 0 - - N 1002,3 45 0,0
23.01.2019 08:00:00 -3,4 -4,5 0 0 - - N 1001,2 45 0,0
23.01.2019 07:00:00 -2,9 -4,0 0 0 - - N 1000,7 50 0,0
23.01.2019 06:00:00 -2,9 -3,6 0 0 - - N 999,9 45 0,0
23.01.2019 05:00:00 -3,0 -3,7 0 0 - - N 999,4 30 0,0
23.01.2019 04:00:00 -3,1 -3,7 0 0 - - N 998,8 17 0,0
23.01.2019 03:00:00 -3,1 -3,6 0 0 - - N 998,3 11 0,0
23.01.2019 02:00:00 -3,4 -3,7 0 0 - - N 998,0 9 0,0
23.01.2019 01:00:00 -5,5 -6,0 0 0 - - N 997,6 3,9 0,0
23.01.2019 00:00:00 -2,5 -2,6 0 0 - - N 997,3 0,7 0,0
22.01.2019 23:00:00 -4,2 -4,4 0 0 - - N 997,2 0,1 0,0
22.01.2019 22:00:00 -3,4 -3,8 0 0 - - N 997,1 - 0,0
22.01.2019 21:00:00 -2,1 -2,3 0 0 - - N 997,0 0,1 0,0
22.01.2019 20:00:00 -1,2 -1,5 4 2 - - SSE 996,8 0,2 0,0
22.01.2019 19:00:00 -0,2 -0,5 8 4 - - SSE 996,8 4,9 0,0
22.01.2019 18:00:00 0,2 -0,2 9 5 - - SSE 996,9 6 0,2
22.01.2019 17:00:00 1,1 0,6 8 4 - - SSW 997,2 7 1,0
22.01.2019 16:00:00 2,9 0,9 11 6 - - SW 997,0 23 0,0
22.01.2019 15:00:00 3,2 0,3 9 5 - - SW 997,1 30 0,0
22.01.2019 14:00:00 3,3 0,0 4 2 - - SSW 997,3 10 0,0
22.01.2019 13:00:00 4,3 0,0 11 6 - - W 997,8 30 0,0
22.01.2019 12:00:00 3,7 0,5 2 1 - - SSE 998,5 50 0,0
22.01.2019 11:00:00 3,5 0,3 2 1 - - E 999,1 30 0,0
22.01.2019 10:00:00 1,7 0,2 11 6 - - ESE 999,1 10 0,0
22.01.2019 09:00:00 1,2 -0,8 5 3 - - WSW 999,4 50 0,0
22.01.2019 08:00:00 1,6 0,2 11 6 - - WSW 999,1 45 0,0
22.01.2019 07:00:00 1,4 -0,4 13 7 - - WSW 999,2 50 0,0
22.01.2019 06:00:00 1,4 -0,2 9 5 - - SSW 999,5 50 0,0
22.01.2019 05:00:00 2,7 0,5 4 2 - - NW 999,8 50 0,0
22.01.2019 04:00:00 3,1 0,8 9 5 - - WNW 999,6 50 0,0
22.01.2019 03:00:00 2,9 1,7 15 8 - - SW 1000,0 50 0,0
22.01.2019 02:00:00 2,9 1,6 16 9 - - SSW 1000,6 50 0,0
22.01.2019 01:00:00 3,3 2,3 28 15 52 28 S 1001,5 17 0,4
22.01.2019 00:00:00 -2,5 -2,6 0 0 48 26 N 997,3 0,7 0,4
21.01.2019 23:00:00 3,5 2,6 31 17 - - SSE 1003,3 5 0,6
21.01.2019 22:00:00 3,4 2,1 28 15 - - SSE 1004,9 8 0,0
21.01.2019 21:00:00 3,7 2,1 29 16 48 26 SSE 1006,5 8 0,0
21.01.2019 20:00:00 3,5 2,1 24 13 - - SSE 1008,3 10 0,0
21.01.2019 19:00:00 4,1 2,1 22 12 - - SSE 1010,2 15 0,0
21.01.2019 18:00:00 3,5 1,5 15 8 - - SSE 1011,6 30 0,0
21.01.2019 17:00:00 3,9 1,6 16 9 - - S 1013,4 40 0,0
21.01.2019 16:00:00 4,0 1,0 16 9 - - S 1014,4 50 0,0
21.01.2019 15:00:00 4,8 2,6 16 9 - - S 1015,8 10 0,0
21.01.2019 14:00:00 4,4 3,1 11 6 - - S 1017,0 7 0,0
21.01.2019 13:00:00 2,7 2,5 5 3 - - ESE 1018,5 6 0,0
21.01.2019 12:00:00 1,7 1,6 8 4 - - SSE 1020,0 9 0,0
21.01.2019 11:00:00 0,5 0,5 11 6 - - SE 1021,2 5 0,0
21.01.2019 10:00:00 -1,0 -1,0 8 4 - - SE 1022,1 10 0,0
21.01.2019 09:00:00 -3,9 -4,1 5 3 - - ESE 1023,0 0,2 0,0
21.01.2019 08:00:00 -4,8 -5,0 4 2 - - E 1023,4 0,1 0,0
21.01.2019 07:00:00 -4,8 -5,1 5 3 - - SW 1023,6 0,3 0,0
21.01.2019 06:00:00 -4,0 -4,2 4 2 - - E 1023,6 0,1 0,0
21.01.2019 05:00:00 -3,3 -3,7 4 2 - - ENE 1023,9 0,1 0,0
21.01.2019 04:00:00 -1,7 -2,3 2 1 - - W 1024,5 0,5 0,0
21.01.2019 03:00:00 0,7 0,1 4 2 - - NW 1024,9 6 0,0
21.01.2019 02:00:00 1,9 1,2 8 4 - - NW 1025,0 8 0,0
21.01.2019 01:00:00 2,3 1,5 9 5 - - N 1024,9 7 0,0
21.01.2019 00:00:00 3,2 2,7 13 7 48 26 NNW 1024,8 8 0,0
20.01.2019 23:00:00 3,3 2,5 9 5 - - NW 1024,2 9 0,0
20.01.2019 22:00:00 3,7 2,8 5 3 - - NW 1023,9 5 0,0
20.01.2019 21:00:00 2,8 2,8 2 1 - - N 1023,4 4,8 0,0
20.01.2019 20:00:00 1,7 1,6 4 2 - - E 1022,9 2,0 0,0
20.01.2019 19:00:00 1,5 1,3 2 1 - - NNW 1022,3 1,5 0,0
20.01.2019 18:00:00 -0,6 -1,3 4 2 - - E 1021,5 0,1 0,0
20.01.2019 17:00:00 2,5 2,0 2 1 - - ENE 1020,9 2,8 0,0
20.01.2019 16:00:00 2,2 0,9 5 3 - - E 1020,1 3,4 0,0
20.01.2019 15:00:00 4,9 3,3 8 4 - - SE 1019,5 5 0,0
20.01.2019 14:00:00 5,5 3,5 8 4 - - SSE 1019,4 5 0,0
20.01.2019 13:00:00 4,3 2,9 8 4 - - SSE 1019,3 4,2 0,0
20.01.2019 12:00:00 3,7 2,8 5 3 - - S 1018,9 3,3 0,0
20.01.2019 11:00:00 3,6 2,8 5 3 - - SE 1018,5 4,2 0,0
20.01.2019 10:00:00 3,0 2,4 5 3 - - SE 1018,1 5 0,0
20.01.2019 09:00:00 2,6 2,3 4 2 - - SSE 1017,4 3,9 0,0
20.01.2019 08:00:00 2,5 2,1 2 1 - - SSE 1016,6 4,5 0,0
20.01.2019 07:00:00 2,5 2,1 2 1 - - SSE 1015,6 2,7 0,0
20.01.2019 06:00:00 2,5 2,2 2 1 - - SSW 1015,1 4,3 0,0
20.01.2019 05:00:00 2,4 2,1 8 4 - - ESE 1014,6 4,4 0,0
20.01.2019 04:00:00 2,2 1,7 4 2 - - ESE 1014,3 6 0,2
20.01.2019 03:00:00 2,1 1,6 4 2 - - SE 1014,1 6 0,0
20.01.2019 02:00:00 2,3 1,5 8 4 - - ESE 1013,6 6 0,2
20.01.2019 01:00:00 2,4 1,4 9 5 - - ESE 1013,3 10 0,0
20.01.2019 00:00:00 2,6 1,3 9 5 - - ESE 1013,1 13 0,0
19.01.2019 23:00:00 2,4 1,3 8 4 - - ESE 1012,6 12 0,0
19.01.2019 22:00:00 2,3 1,2 4 2 - - E 1012,3 13 0,0
19.01.2019 21:00:00 2,4 1,3 5 3 - - ESE 1011,9 16 0,0
19.01.2019 20:00:00 2,5 1,5 9 5 - - ESE 1011,4 13 0,0
19.01.2019 19:00:00 2,6 1,8 11 6 - - ESE 1011,0 10 0,0
19.01.2019 18:00:00 2,7 1,9 11 6 - - ESE 1010,8 7 0,0
19.01.2019 17:00:00 2,7 1,8 5 3 - - ESE 1010,3 8 0,0
19.01.2019 16:00:00 2,8 1,8 9 5 - - ESE 1009,8 8 0,0
19.01.2019 15:00:00 2,8 1,8 13 7 - - SE 1009,6 10 0,0
19.01.2019 14:00:00 2,5 1,8 18 10 - - SE 1009,8 7 0,0
19.01.2019 13:00:00 2,4 1,8 16 9 - - SE 1010,0 5 0,0
19.01.2019 12:00:00 2,0 1,6 16 9 - - SE 1010,4 4,2 0,0
19.01.2019 11:00:00 1,9 1,3 15 8 - - SE 1010,5 6 0,0
19.01.2019 10:00:00 1,7 1,4 15 8 - - ESE 1010,2 7 0,0
19.01.2019 09:00:00 1,4 1,2 9 5 - - SE 1009,8 7 0,0
19.01.2019 08:00:00 0,7 0,4 13 7 - - ESE 1009,5 7 0,4
19.01.2019 07:00:00 1,1 0,8 15 8 - - ESE 1009,3 8 0,0
19.01.2019 06:00:00 1,2 1,0 16 9 - - ESE 1009,2 8 0,0
19.01.2019 05:00:00 0,8 0,6 15 8 - - ESE 1009,4 5 0,2
19.01.2019 04:00:00 0,5 0,3 21 11 - - ESE 1009,6 2,2 0,2
19.01.2019 03:00:00 1,5 1,0 21 11 - - SE 1009,6 5 0,0
19.01.2019 02:00:00 1,7 1,2 22 12 - - SE 1009,7 9 0,0
19.01.2019 01:00:00 1,4 1,0 18 10 - - SE 1010,2 11 0,2
19.01.2019 00:00:00 0,7 0,4 21 11 - - SE 1010,6 3,0 0,2
18.01.2019 23:00:00 0,9 0,7 26 14 - - SE 1010,8 3,7 0,2
18.01.2019 22:00:00 0,7 0,5 22 12 - - SE 1011,0 2,8 0,2
18.01.2019 21:00:00 1,3 0,9 26 14 - - SE 1011,2 8 0,4
18.01.2019 20:00:00 1,4 0,7 24 13 - - SSE 1011,5 7 0,2
18.01.2019 19:00:00 1,7 0,3 24 13 - - SE 1011,6 9 0,0
18.01.2019 18:00:00 1,6 -0,3 21 11 - - SE 1011,7 13 0,0
18.01.2019 17:00:00 1,3 -0,9 21 11 - - SE 1012,1 21 0,0
18.01.2019 16:00:00 1,5 -1,2 22 12 - - SE 1012,5 24 0,0
18.01.2019 15:00:00 1,7 -1,2 22 12 - - SE 1012,7 30 0,0
18.01.2019 14:00:00 1,4 -1,5 24 13 - - SE 1013,3 30 0,0
18.01.2019 13:00:00 1,8 -1,0 21 11 - - SE 1014,2 21 0,0
18.01.2019 12:00:00 0,7 -1,7 18 10 - - SE 1014,9 23 0,0
18.01.2019 11:00:00 0,8 -1,8 21 11 - - SE 1015,4 21 0,0
18.01.2019 10:00:00 -0,7 -2,3 16 9 - - SE 1015,9 15 0,0
18.01.2019 09:00:00 -3,3 -4,2 9 5 - - SE 1016,1 16 0,0
18.01.2019 08:00:00 -4,1 -4,7 9 5 - - SE 1016,1 19 0,0
18.01.2019 07:00:00 -4,1 -4,8 11 6 - - SE 1016,3 15 0,0
18.01.2019 06:00:00 -3,2 -3,8 8 4 - - SE 1016,6 15 0,0
18.01.2019 05:00:00 -4,2 -4,9 9 5 - - SE 1016,8 16 0,0
18.01.2019 04:00:00 -3,8 -4,8 5 3 - - S 1017,2 17 0,0
18.01.2019 03:00:00 -2,7 -3,7 5 3 - - SSE 1017,6 24 0,0
18.01.2019 02:00:00 -4,0 -5,6 0 0 - - N 1017,8 16 0,0
18.01.2019 01:00:00 -1,5 -2,9 9 5 - - SW 1018,1 27 0,0
18.01.2019 00:00:00 -2,6 -4,3 2 1 - - NNE 1018,1 23 0,0
17.01.2019 23:00:00 -0,2 -2,7 11 6 - - N 1018,2 28 0,0

tt = temperature
td = dewpoint
ff = wind speed
fx = gusts
dd = wind direction
ppp = reduced air pressure
vv = visibility
rr = precipitation

Next stations